Marble, NC

3:52 PM EST on February 26, 2017 (GMT -0500)
Andrews

Weather History for KRHP - March, 2013

Change the Weather History Date:

Wednesday, March 6, 2013

  Actual Average (KMMI) Record (KMMI)
Temperature  
Mean Temperature 30 °F -  
Max Temperature 33 °F 59 °F 60 °F (2016)
Min Temperature 27 °F 34 °F 19 °F (2015)
Degree Days  
Heating Degree Days 35    
Moisture  
Dew Point 24 °F    
Average Humidity 77    
Maximum Humidity 94    
Minimum Humidity 63    
Precipitation  
Precipitation 0.00 in - - ()
Sea Level Pressure  
Sea Level Pressure 30.00 in    
Wind  
Wind Speed 7 mph (WNW)    
Max Wind Speed 16 mph    
Max Gust Speed 26 mph    
Visibility 7 miles    
Events Snow    
Averages and records for this station are not official NWS values.
T = Trace of Precipitation, MM = Missing Value Source: NWS Daily Summary

Daily Weather History Graph

Daily Weather History Graph

Search for Another Location

Airport or City:

Trip Planner

Search our weather history database for the weather conditions in past years. The results will help you decide how hot, cold, wet, or windy it might be!

Date:

Astronomy

Mar. 06, 2013 Rise Set
Actual Time 6:58 AM EST 6:35 PM EST
Civil Twilight 6:32 AM EST 7:00 PM EST
Nautical Twilight 6:03 AM EST 7:30 PM EST
Astronomical Twilight 5:33 AM EST 7:59 PM EST
Moon 2:57 AM EST (3/6) 1:25 PM EST (3/6)
Length of Visible Light 12h 28m
Length of Day
11h 37m
Waning Crescent, 30% of the Moon is Illuminated
Mar 6
Waning Crescent
Mar 11
New
Mar 19
First Quarter
Mar 27
Full
Apr 3
Last Quarter

Hourly Weather History & Observations

Time (EST) Temp. Windchill Dew Point Humidity Pressure Visibility Wind Dir Wind Speed Gust Speed Precip Events Conditions
12:15 AM 33.6 °F 26.8 °F 24.4 °F 69% 29.83 in 10.0 mi West 8.1 mph - N/A   Overcast
12:35 AM 33.1 °F 26.9 °F 25.5 °F 74% 29.83 in 10.0 mi West 6.9 mph - N/A   Overcast
12:55 AM 32.4 °F 29.1 °F 27.1 °F 81% 29.82 in 7.0 mi WSW 3.5 mph - N/A Snow Light Snow
1:15 AM 30.2 °F 22.6 °F 28.8 °F 94% 29.82 in 0.2 mi West 8.1 mph 15.0 mph N/A Snow Snow
1:35 AM 30.2 °F 20.8 °F 28.6 °F 94% 29.83 in 0.2 mi WSW 11.5 mph - N/A Snow Heavy Snow
1:55 AM 30.9 °F 25.2 °F 26.2 °F 83% 29.83 in 2.5 mi West 5.8 mph - N/A Snow Light Snow
2:15 AM 31.6 °F 22.1 °F 23.0 °F 70% 29.83 in 10.0 mi West 12.7 mph 18.4 mph N/A Snow Light Snow
2:35 AM 29.5 °F 18.0 °F 23.5 °F 79% 29.85 in 0.8 mi WNW 16.1 mph 26.5 mph N/A Snow Snow
2:55 AM 28.2 °F 17.7 °F 19.9 °F 71% 29.84 in 10.0 mi West 12.7 mph 18.4 mph N/A   Mostly Cloudy
3:15 AM 28.8 °F 19.0 °F 19.2 °F 68% 29.84 in 7.0 mi West 11.5 mph 23.0 mph N/A Snow Light Snow
3:35 AM 27.5 °F 18.6 °F 21.9 °F 80% 29.85 in 2.0 mi West 9.2 mph - N/A Snow Light Snow
3:55 AM 27.5 °F 17.4 °F 21.7 °F 79% 29.85 in 4.0 mi West 11.5 mph - N/A Snow Light Snow
4:15 AM 28.4 °F 20.4 °F 20.3 °F 72% 29.86 in 7.0 mi West 8.1 mph 19.6 mph N/A Snow Light Snow
4:35 AM 28.4 °F 18.5 °F 19.4 °F 69% 29.86 in 7.0 mi West 11.5 mph 20.7 mph N/A Snow Light Snow
4:55 AM 28.4 °F 20.4 °F 20.3 °F 72% 29.86 in 10.0 mi West 8.1 mph - N/A Snow Light Snow
5:15 AM 27.9 °F 20.6 °F 21.4 °F 77% 29.87 in 5.0 mi WSW 6.9 mph - N/A Snow Light Snow
5:35 AM 27.5 °F 19.3 °F 22.1 °F 80% 29.88 in 4.0 mi SW 8.1 mph - N/A Snow Light Snow
5:55 AM 27.5 °F 23.6 °F 22.5 °F 81% 29.89 in 4.0 mi SW 3.5 mph - N/A Snow Light Snow
6:15 AM 27.5 °F 22.2 °F 23.0 °F 83% 29.90 in 4.0 mi SSW 4.6 mph - N/A Snow Light Snow
6:35 AM 27.3 °F - 23.5 °F 86% 29.90 in 3.0 mi Calm Calm - N/A Snow Light Snow
6:55 AM 27.5 °F - 23.5 °F 85% 29.91 in 3.0 mi Calm Calm - N/A Snow Light Snow
7:15 AM 27.3 °F 23.4 °F 24.1 °F 88% 29.92 in 1.5 mi SSW 3.5 mph - N/A Snow Light Snow
7:35 AM 27.3 °F 23.4 °F 24.4 °F 89% 29.92 in 1.5 mi SW 3.5 mph - N/A Snow Light Snow
7:55 AM 27.5 °F 22.2 °F 24.1 °F 87% 29.93 in 1.2 mi SSW 4.6 mph - N/A Snow Light Snow
8:15 AM 27.5 °F 22.2 °F 24.3 °F 88% 29.95 in 1.0 mi South 4.6 mph - N/A Snow Light Snow
8:35 AM 28.0 °F 20.8 °F 24.4 °F 86% 29.95 in 1.5 mi West 6.9 mph - N/A Snow Light Snow
8:55 AM 28.0 °F 21.7 °F 24.8 °F 88% 29.96 in 1.2 mi West 5.8 mph - N/A Snow Light Snow
9:15 AM 28.4 °F 24.6 °F 24.8 °F 86% 29.97 in 0.8 mi West 3.5 mph - N/A Snow Light Snow
9:35 AM 28.9 °F 25.2 °F 25.0 °F 85% 29.98 in 3.0 mi WSW 3.5 mph - N/A Snow Light Snow
9:55 AM 30.0 °F 26.5 °F 23.9 °F 78% 29.99 in 5.0 mi SW 3.5 mph - N/A Snow Light Snow
10:15 AM 30.6 °F 27.1 °F 23.4 °F 75% 29.99 in 10.0 mi SW 3.5 mph - N/A   Overcast
10:35 AM 31.3 °F - 22.5 °F 70% 29.99 in 10.0 mi Calm Calm - N/A   Overcast
10:55 AM 32.0 °F 28.7 °F 23.2 °F 70% 30.00 in 10.0 mi SE 3.5 mph - N/A   Overcast
11:15 AM 32.0 °F - 21.0 °F 64% 30.00 in 10.0 mi Calm Calm - N/A   Overcast
11:35 AM 32.2 °F 24.4 °F 21.0 °F 63% 30.01 in 10.0 mi NNW 9.2 mph 19.6 mph N/A   Overcast
11:55 AM 32.0 °F 25.6 °F 21.6 °F 65% 30.02 in 10.0 mi North 6.9 mph 23.0 mph N/A   Overcast
12:15 PM 32.0 °F 26.4 °F 22.1 °F 67% 30.03 in 10.0 mi North 5.8 mph 17.3 mph N/A   Overcast
12:35 PM 32.0 °F 27.5 °F 23.2 °F 70% 30.04 in 10.0 mi North 4.6 mph - N/A   Overcast
12:55 PM 31.8 °F 27.3 °F 23.2 °F 70% 30.05 in 5.0 mi North 4.6 mph - N/A   Haze
1:15 PM 31.8 °F 27.3 °F 23.2 °F 70% 30.05 in 5.0 mi North 4.6 mph - N/A   Haze
1:35 PM 31.6 °F - 24.3 °F 74% 30.04 in 7.0 mi Calm Calm - N/A   Overcast
1:55 PM 32.0 °F - 24.3 °F 73% 30.04 in 10.0 mi Calm Calm - N/A   Overcast
2:15 PM 32.0 °F 26.4 °F 24.8 °F 75% 30.05 in 10.0 mi SE 5.8 mph - N/A   Overcast
2:35 PM 32.2 °F 26.7 °F 24.4 °F 73% 30.04 in 10.0 mi SSE 5.8 mph - N/A   Overcast
2:55 PM 32.5 °F 29.3 °F 24.4 °F 72% 30.05 in 10.0 mi ESE 3.5 mph - N/A   Overcast
3:15 PM 32.9 °F 27.5 °F 25.0 °F 73% 30.06 in 10.0 mi SE 5.8 mph - N/A   Overcast
3:35 PM 33.1 °F 25.5 °F 24.6 °F 71% 30.07 in 10.0 mi ESE 9.2 mph - N/A   Overcast
4:15 PM 33.1 °F 24.4 °F 26.2 °F 76% 30.08 in 10.0 mi East 11.5 mph - N/A   Overcast
4:35 PM 32.9 °F 23.7 °F 26.4 °F 77% 30.09 in 10.0 mi East 12.7 mph - N/A   Overcast
4:55 PM 32.9 °F 24.7 °F 26.2 °F 76% 30.09 in 10.0 mi East 10.4 mph - N/A   Overcast
5:15 PM 32.5 °F 25.5 °F 25.9 °F 76% 30.10 in 10.0 mi ESE 8.1 mph - N/A   Overcast
5:35 PM 32.4 °F 23.5 °F 26.1 °F 78% 30.10 in 10.0 mi East 11.5 mph 17.3 mph N/A   Overcast
5:55 PM 32.0 °F 22.1 °F 26.4 °F 80% 30.11 in 10.0 mi East 13.8 mph 17.3 mph N/A   Overcast
6:15 PM 32.0 °F 22.5 °F 26.4 °F 80% 30.11 in 10.0 mi East 12.7 mph - N/A   Overcast
6:35 PM 32.0 °F 23.6 °F 26.2 °F 79% 30.13 in 10.0 mi East 10.4 mph 21.9 mph N/A   Overcast
6:55 PM 32.0 °F 24.2 °F 25.9 °F 78% 30.14 in 10.0 mi East 9.2 mph 18.4 mph N/A   Overcast
7:15 PM 32.0 °F 24.8 °F 26.4 °F 80% 30.14 in 10.0 mi East 8.1 mph - N/A   Overcast
7:35 PM 32.0 °F 27.5 °F 25.9 °F 78% 30.13 in 10.0 mi ENE 4.6 mph - N/A   Overcast
7:55 PM 32.0 °F 27.5 °F 26.2 °F 79% 30.14 in 10.0 mi East 4.6 mph - N/A   Overcast
8:15 PM 32.0 °F 26.4 °F 25.9 °F 78% 30.15 in 10.0 mi ENE 5.8 mph - N/A   Overcast
8:35 PM 32.0 °F 28.7 °F 26.1 °F 79% 30.16 in 10.0 mi North 3.5 mph - N/A   Overcast
8:55 PM 32.0 °F 28.7 °F 25.0 °F 75% 30.15 in 10.0 mi ENE 3.5 mph - N/A   Overcast
9:35 PM 32.0 °F 27.5 °F 25.3 °F 76% 30.16 in 10.0 mi NNE 4.6 mph - N/A   Overcast
9:55 PM 32.0 °F 25.6 °F 25.3 °F 76% 30.16 in 10.0 mi North 6.9 mph 10.4 mph N/A   Overcast
10:15 PM 32.0 °F 23.0 °F 25.5 °F 77% 30.16 in 10.0 mi NE 11.5 mph 16.1 mph N/A   Overcast
10:35 PM 31.8 °F 27.3 °F 25.9 °F 79% 30.16 in 10.0 mi NE 4.6 mph 17.3 mph N/A   Overcast
10:55 PM 31.6 °F 25.1 °F 25.7 °F 79% 30.17 in 10.0 mi NE 6.9 mph - N/A   Overcast
11:15 PM 31.8 °F 26.2 °F 25.5 °F 78% 30.16 in 10.0 mi NE 5.8 mph - N/A   Overcast
11:35 PM 31.8 °F 27.3 °F 25.2 °F 76% 30.17 in 10.0 mi NE 4.6 mph - N/A   Overcast
11:55 PM 31.8 °F 26.2 °F 25.5 °F 78% 30.15 in 10.0 mi ENE 5.8 mph - N/A   Overcast